Location: Jaite
(41.2884°N, 81.5737°W)
Time: 21:07:08
(UTC+00:00)

Cosmos 1980 - Pass Details

Date: 18 January 2020
Orbit: 838 x 849 km, 71.0° (Epoch: 25 February)

Event Time Altitude Azimuth Distance (km) Brightness Sun altitude
Rises 00:27:56 0° 336° (NNW) 3,419 7.1 -22.9°
Reaches altitude 10° 00:30:23 10° 337° (NNW) 2,480 6.3 -23.4°
Maximum altitude 00:36:06 86° 66° (ENE) 857 3.6 -24.5°
Enters shadow 00:39:05 30° 154° (SSE) 1,487 4.8 -25.0°
